Date String (YYYY-MM-DD hh:mm:ss) UTC,Instrument flags,absolute air pressure of the measurement (hPa),sample flow rate (lpm),inlet stack bypass flow (lpm),air temperature of the measurement (°C),ambient temperature measured by the external sensor (°C),aerosol sample conditioner tube jacket temperature (°C),OPC LED temperature (°C),internal box temperature (°C),relative humidity of the measurement (%),span deviation,mass concentration of particles derived from Lorenz-Mie calculation of OPC scattering (μg/m³),mass concentration of particles derived from Lorenz-Mie calculation of OPC scattering (μg/m³),mass concentration of particles derived from Lorenz-Mie calculation of OPC scattering (μg/m³)
DateTimeUTC,F1_M11,P_M11,Q1_M11,Q2_M11,T1_M11,T2_M11,T3_M11,T4_M11,T5_M11,U1_M11,ZSPAN_M11,X0_M11,X2_M11,X1_M11
2023-10-11 18:00:00,SystemResetWarning,0814.4,5.00,000.00,028.5,025.8,000.0,037.2,030.1,14.3,0000.0,0010.43,0004.35,0003.69
2023-10-11 18:01:00,SystemResetWarning,0814.4,5.00,000.00,028.5,026.1,000.0,037.2,030.2,14.2,0000.0,0010.36,0004.37,0003.71
2023-10-11 18:02:00,SystemResetWarning,0814.4,5.00,000.00,028.6,026.4,000.0,037.1,030.2,14.3,0000.0,0010.59,0004.42,0003.72
2023-10-11 18:03:00,SystemResetWarning,0814.4,5.00,000.00,028.6,026.7,000.0,037.1,030.3,14.2,0000.0,0011.16,0004.49,0003.74
2023-10-11 18:04:00,SystemResetWarning,0814.4,4.99,000.00,028.6,026.9,000.0,037.1,030.3,14.2,0000.0,0011.74,0004.53,0003.75
2023-10-11 18:05:00,SystemResetWarning,0814.4,5.00,000.00,028.6,027.1,000.0,037.1,030.4,14.0,0000.0,0012.27,0004.53,0003.74
2023-10-11 18:06:00,SystemResetWarning,0814.4,4.99,000.00,028.7,027.2,000.0,037.2,030.4,14.0,0000.0,0011.89,0004.48,0003.74
2023-10-11 18:07:00,SystemResetWarning,0814.4,5.00,000.00,028.7,027.4,000.0,037.2,030.4,14.2,0000.0,0012.59,0004.49,0003.74
2023-10-11 18:08:00,SystemResetWarning,0814.5,5.00,000.00,028.7,027.5,000.0,037.2,030.5,14.3,0000.0,0013.08,0004.53,0003.75
2023-10-11 18:09:00,SystemResetWarning,0814.4,5.01,000.00,028.8,027.6,000.0,037.2,030.5,14.2,0000.0,0014.30,0004.52,0003.76
2023-10-11 18:10:00,SystemResetWarning,0814.4,5.00,000.00,028.8,027.7,000.0,037.2,030.6,14.2,0000.0,0014.40,0004.51,0003.77
2023-10-11 18:11:00,SystemResetWarning,0814.4,4.99,000.00,028.9,027.8,000.0,037.2,030.6,14.1,0000.0,0014.93,0004.51,0003.76
2023-10-11 18:12:00,SystemResetWarning,0814.4,5.00,000.00,028.9,027.8,000.0,037.3,030.7,13.9,0000.0,0015.71,0004.55,0003.77
2023-10-11 18:13:00,SystemResetWarning,0814.4,5.00,000.00,028.9,027.7,000.0,037.3,030.7,14.1,0000.0,0016.29,0004.57,0003.77
2023-10-11 18:14:00,SystemResetWarning,0814.4,5.00,000.00,028.9,026.1,000.0,037.2,030.6,14.2,0000.0,0016.14,0004.58,0003.77
2023-10-11 18:15:00,SystemResetWarning,0814.4,5.00,000.00,028.8,024.5,000.0,037.2,030.3,14.1,0000.0,0015.94,0004.62,0003.79
2023-10-11 18:16:00,SystemResetWarning,0814.4,5.02,000.00,028.7,024.4,000.0,037.1,030.2,14.2,0000.0,0015.56,0004.69,0003.80
2023-10-11 18:17:00,SystemResetWarning,0814.4,5.00,000.00,028.6,024.7,000.0,037.1,030.0,14.3,0000.0,0015.57,0004.76,0003.81
2023-10-11 18:18:00,SystemResetWarning,0814.4,5.00,000.00,028.5,025.1,000.0,037.1,030.0,14.2,0000.0,0015.11,0004.81,0003.82
2023-10-11 18:19:00,SystemResetWarning,0814.4,5.00,000.00,028.5,025.5,000.0,037.1,030.0,14.2,0000.0,0014.50,0004.84,0003.82
2023-10-11 18:20:00,SystemResetWarning,0814.3,5.00,000.00,028.5,025.9,000.0,037.1,030.1,14.1,0000.0,0013.90,0004.84,0003.82
2023-10-11 18:21:00,SystemResetWarning,0814.4,5.00,000.00,028.5,026.2,000.0,037.1,030.1,14.1,0000.0,0013.29,0004.85,0003.80
2023-10-11 18:22:00,SystemResetWarning,0814.3,5.00,000.00,028.5,026.5,000.0,037.1,030.2,14.2,0000.0,0012.83,0004.91,0003.80
2023-10-11 18:23:00,SystemResetWarning,0814.4,4.99,000.00,028.5,026.7,000.0,037.1,030.2,14.3,0000.0,0012.65,0004.88,0003.78
2023-10-11 18:24:00,SystemResetWarning,0814.4,5.00,000.00,028.6,026.9,000.0,037.1,030.3,14.4,0000.0,0012.95,0004.85,0003.77
2023-10-11 18:25:00,SystemResetWarning,0814.4,5.00,000.00,028.6,027.1,000.0,037.1,030.3,14.4,0000.0,0012.91,0004.83,0003.77
2023-10-11 18:26:00,SystemResetWarning,0814.5,5.00,000.00,028.6,027.2,000.0,037.1,030.4,14.1,0000.0,0012.70,0004.74,0003.76
2023-10-11 18:27:00,SystemResetWarning,0814.5,5.00,000.00,028.6,027.4,000.0,037.1,030.4,14.0,0000.0,0013.34,0004.69,0003.75
2023-10-11 18:28:00,SystemResetWarning,0814.5,5.00,000.00,028.7,027.5,000.0,037.1,030.5,13.9,0000.0,0014.17,0004.75,0003.75
2023-10-11 18:29:00,SystemResetWarning,0814.4,4.99,000.00,028.7,027.6,000.0,037.1,030.5,14.0,0000.0,0013.75,0004.77,0003.75
2023-10-11 18:30:00,SystemResetWarning,0814.5,4.99,000.00,028.8,027.7,000.0,037.2,030.5,14.0,0000.0,0013.94,0004.80,0003.76
2023-10-11 18:31:00,SystemResetWarning,0814.4,5.00,000.00,028.8,027.7,000.0,037.2,030.6,13.7,0000.0,0013.47,0004.84,0003.75
2023-10-11 18:32:00,SystemResetWarning,0814.4,5.01,000.00,028.8,027.8,000.0,037.2,030.6,13.7,0000.0,0013.63,0004.90,0003.78
2023-10-11 18:33:00,SystemResetWarning,0814.4,5.01,000.00,028.9,027.9,000.0,037.2,030.7,13.6,0000.0,0014.02,0004.90,0003.78
2023-10-11 18:34:00,SystemResetWarning,0814.3,5.00,000.00,028.9,027.6,000.0,037.3,030.7,13.7,0000.0,0014.29,0004.93,0003.78
2023-10-11 18:35:00,SystemResetWarning,0814.3,4.98,000.00,028.9,025.8,000.0,037.2,030.5,13.7,0000.0,0014.28,0004.94,0003.75
2023-10-11 18:36:00,SystemResetWarning,0814.3,5.02,000.00,028.8,024.4,000.0,037.1,030.3,13.6,0000.0,0014.49,0004.91,0003.73
2023-10-11 18:37:00,SystemResetWarning,0814.3,5.01,000.00,028.7,024.4,000.0,037.1,030.2,13.6,0000.0,0014.41,0004.91,0003.70
2023-10-11 18:38:00,SystemResetWarning,0814.3,4.99,000.00,028.6,024.7,000.0,037.1,030.0,13.6,0000.0,0013.80,0004.90,0003.68
2023-10-11 18:39:00,SystemResetWarning,0814.3,5.00,000.00,028.5,025.2,000.0,037.1,030.0,13.8,0000.0,0012.78,0004.84,0003.66
2023-10-11 18:40:00,SystemResetWarning,0814.3,5.00,000.00,028.5,025.6,000.0,037.1,030.1,13.7,0000.0,0013.21,0004.73,0003.62
2023-10-11 18:41:00,SystemResetWarning,0814.4,5.00,000.00,028.5,026.0,000.0,037.1,030.1,13.4,0000.0,0014.70,0004.69,0003.59
2023-10-11 18:42:00,SystemResetWarning,0814.4,5.00,000.00,028.5,026.3,000.0,037.1,030.2,13.4,0000.0,0015.18,0004.64,0003.59
2023-10-11 18:43:00,SystemResetWarning,0814.4,5.00,000.00,028.5,026.6,000.0,037.1,030.2,13.4,0000.0,0015.34,0004.61,0003.57
2023-10-11 18:44:00,SystemResetWarning,0814.4,5.00,000.00,028.6,026.8,000.0,037.1,030.3,13.2,0000.0,0015.30,0004.58,0003.56
2023-10-11 18:45:00,SystemResetWarning,0814.5,5.00,000.00,028.6,027.0,000.0,037.1,030.3,13.2,0000.0,0016.09,0004.54,0003.55
2023-10-11 18:46:00,SystemResetWarning,0814.5,5.00,000.00,028.6,027.2,000.0,037.1,030.4,13.2,0000.0,0016.16,0004.59,0003.57
2023-10-11 18:47:00,SystemResetWarning,0814.5,5.00,000.00,028.6,027.3,000.0,037.1,030.4,13.2,0000.0,0016.68,0004.67,0003.58
2023-10-11 18:48:00,SystemResetWarning,0814.4,5.00,000.00,028.7,027.5,000.0,037.1,030.5,13.3,0000.0,0017.36,0004.74,0003.60
2023-10-11 18:49:00,SystemResetWarning,0814.5,4.99,000.00,028.7,027.6,000.0,037.2,030.5,13.3,0000.0,0017.29,0004.74,0003.61
2023-10-11 18:50:00,SystemResetWarning,0814.4,4.99,000.00,028.8,027.7,000.0,037.2,030.6,13.4,0000.0,0018.29,0004.80,0003.62
2023-10-11 18:51:00,SystemResetWarning,0814.4,5.00,000.00,028.8,027.7,000.0,037.2,030.6,13.4,0000.0,0018.35,0004.90,0003.65
2023-10-11 18:52:00,SystemResetWarning,0814.4,4.99,000.00,028.8,026.8,000.0,037.2,030.6,13.5,0000.0,0018.01,0004.88,0003.66
2023-10-11 18:53:00,SystemResetWarning,0814.3,5.00,000.00,028.8,024.8,000.0,037.1,030.3,13.6,0000.0,0018.03,0004.92,0003.67
2023-10-11 18:54:00,SystemResetWarning,0814.3,5.01,000.00,028.7,024.1,000.0,037.0,030.2,13.7,0000.0,0018.23,0004.92,0003.68
2023-10-11 18:55:00,SystemResetWarning,0814.3,5.01,000.00,028.5,024.3,000.0,037.0,029.9,13.9,0001.2,0018.22,0004.95,0003.69
2023-10-11 18:56:00,SystemResetWarning,0814.3,5.00,000.00,028.4,024.7,000.0,037.0,029.9,13.9,0003.1,0017.42,0004.99,0003.70
2023-10-11 18:57:00,SystemResetWarning,0814.2,5.00,000.00,028.4,025.1,000.0,037.0,029.9,13.9,0000.7,0016.34,0004.95,0003.69
2023-10-11 18:58:00,SystemResetWarning,0814.2,4.99,000.00,028.4,025.6,000.0,037.0,030.0,13.9,0000.0,0016.97,0004.93,0003.69
2023-10-11 18:59:00,SystemResetWarning,0814.2,5.00,000.00,028.4,025.9,000.0,037.0,030.0,14.0,0000.0,0016.60,0004.90,0003.68
